リニア彗星

C/2016 A8 ( LINEAR )

English version
Home page
Updated on December 17, 2017

---------------------------------------------------------------------

・ プロフィール

発見日 2016年1月14日
発見光度 20.1等
発見者 LINEAR survey (Space Surveillance Telescope, Atom Peak, White Sands Missile Range, NM, USA)

・ 写真集

・ 軌道要素

Epoch 2016 Sept. 9.0 TT = JDT 2457640.5
T 2016 Aug. 30.66920 TT                                 MPCW
q   1.8811304            (2000.0)            P               Q
z  +0.0285258      Peri.  130.26544     +0.83864266     -0.23574131
 +/-0.0000000      Node   111.23261     -0.49712427     -0.69967813
e   0.9463392      Incl.  148.21164     +0.22258921     -0.67444536
From 1291 observations 2016 Jan. 14-2017 Mar. 5, mean residual 0".5.

・ 星図

・ 光度変化

        m1 = 6.5 + 5 logΔ + 21.0 log r

---------------------------------------------------------------------

軌道要素はM.P.E.C. 2017-J52に掲載されたものです。
星図はステラナビゲータ Ver.10 (アストロアーツ) で作成したものです。
光度グラフはComet for Windowsで作成したものです。

---------------------------------------------------------------------

Copyright(C) Seiichi Yoshida (comet@aerith.net). All rights reserved.